<?xml version="1.0" encoding="UTF-8" standalone="no" ?>
<gpx xmlns="http://www.topografix.com/GPX/1/1" xmlns:xsi="http://www.w3.org/2001/XMLSchema-instance" xsi:schemaLocation="http://www.topografix.com/GPX/1/1 http://www.topografix.com/GPX/1/1/gpx.xsd" version="1.1" creator="VisuGPX - https://www.visugpx.com">
  <metadata>
    <name>Ligne 3 Gardiol - Crêts de Champel </name>
  </metadata>
  <trk>
    <name><![CDATA[ligne 3 aller Gardiol - Crêts-de-Champel 2018_Sans titre - Trajet]]></name>
    <trkseg>
      <trkpt lat="46.22893" lon="6.12101">
        <ele>451.9</ele>
        <time>2020-05-04T12:33:08.000Z</time>
      </trkpt>
      <trkpt lat="46.22901" lon="6.12089">
        <ele>452.5</ele>
        <time>2020-05-04T12:33:11.809Z</time>
      </trkpt>
      <trkpt lat="46.22903" lon="6.12084">
        <ele>452.8</ele>
        <time>2020-05-04T12:33:13.432Z</time>
      </trkpt>
      <trkpt lat="46.22904" lon="6.12078">
        <ele>452.6</ele>
        <time>2020-05-04T12:33:13.860Z</time>
      </trkpt>
      <trkpt lat="46.22903" lon="6.12071">
        <ele>452.3</ele>
        <time>2020-05-04T12:33:14.245Z</time>
      </trkpt>
      <trkpt lat="46.22901" lon="6.12067">
        <ele>452.1</ele>
        <time>2020-05-04T12:33:14.542Z</time>
      </trkpt>
      <trkpt lat="46.22898" lon="6.12062">
        <ele>451.8</ele>
        <time>2020-05-04T12:33:14.968Z</time>
      </trkpt>
      <trkpt lat="46.22894" lon="6.12055">
        <ele>451.5</ele>
        <time>2020-05-04T12:33:15.595Z</time>
      </trkpt>
      <trkpt lat="46.22785" lon="6.11909">
        <ele>444.6</ele>
        <time>2020-05-04T12:33:30.485Z</time>
      </trkpt>
      <trkpt lat="46.22782" lon="6.11905">
        <ele>444.7</ele>
        <time>2020-05-04T12:33:31.450Z</time>
      </trkpt>
      <trkpt lat="46.22779" lon="6.11903">
        <ele>444.7</ele>
        <time>2020-05-04T12:33:32.081Z</time>
      </trkpt>
      <trkpt lat="46.22775" lon="6.11901">
        <ele>444.7</ele>
        <time>2020-05-04T12:33:32.807Z</time>
      </trkpt>
      <trkpt lat="46.22772" lon="6.119">
        <ele>444.8</ele>
        <time>2020-05-04T12:33:33.682Z</time>
      </trkpt>
      <trkpt lat="46.22769" lon="6.11901">
        <ele>444.9</ele>
        <time>2020-05-04T12:33:34.534Z</time>
      </trkpt>
      <trkpt lat="46.22766" lon="6.11903">
        <ele>445</ele>
        <time>2020-05-04T12:33:35.385Z</time>
      </trkpt>
      <trkpt lat="46.22763" lon="6.11906">
        <ele>445.1</ele>
        <time>2020-05-04T12:33:36.329Z</time>
      </trkpt>
      <trkpt lat="46.22758" lon="6.11913">
        <ele>445.5</ele>
        <time>2020-05-04T12:33:38.786Z</time>
      </trkpt>
      <trkpt lat="46.22725" lon="6.11964">
        <ele>448.1</ele>
        <time>2020-05-04T12:33:55.221Z</time>
      </trkpt>
      <trkpt lat="46.22713" lon="6.11983">
        <ele>448.4</ele>
        <time>2020-05-04T12:33:59.228Z</time>
      </trkpt>
      <trkpt lat="46.22704" lon="6.11996">
        <ele>448.6</ele>
        <time>2020-05-04T12:34:02.078Z</time>
      </trkpt>
      <trkpt lat="46.227" lon="6.12002">
        <ele>450.1</ele>
        <time>2020-05-04T12:34:06.108Z</time>
      </trkpt>
      <trkpt lat="46.22698" lon="6.12007">
        <ele>450.2</ele>
        <time>2020-05-04T12:34:07.115Z</time>
      </trkpt>
      <trkpt lat="46.22697" lon="6.1201">
        <ele>450.2</ele>
        <time>2020-05-04T12:34:07.566Z</time>
      </trkpt>
      <trkpt lat="46.22697" lon="6.12015">
        <ele>450.3</ele>
        <time>2020-05-04T12:34:08.444Z</time>
      </trkpt>
      <trkpt lat="46.22698" lon="6.12019">
        <ele>450.4</ele>
        <time>2020-05-04T12:34:09.274Z</time>
      </trkpt>
      <trkpt lat="46.22699" lon="6.12023">
        <ele>450.4</ele>
        <time>2020-05-04T12:34:09.837Z</time>
      </trkpt>
      <trkpt lat="46.22701" lon="6.12027">
        <ele>450.5</ele>
        <time>2020-05-04T12:34:10.804Z</time>
      </trkpt>
      <trkpt lat="46.22725" lon="6.1206">
        <ele>451</ele>
        <time>2020-05-04T12:34:18.149Z</time>
      </trkpt>
      <trkpt lat="46.22818" lon="6.12182">
        <ele>452.9</ele>
        <time>2020-05-04T12:34:45.852Z</time>
      </trkpt>
      <trkpt lat="46.22845" lon="6.12218">
        <ele>452.2</ele>
        <time>2020-05-04T12:34:50.775Z</time>
      </trkpt>
      <trkpt lat="46.22846" lon="6.12221">
        <ele>452.2</ele>
        <time>2020-05-04T12:34:51.264Z</time>
      </trkpt>
      <trkpt lat="46.22847" lon="6.12226">
        <ele>452.3</ele>
        <time>2020-05-04T12:34:52.132Z</time>
      </trkpt>
      <trkpt lat="46.22847" lon="6.1223">
        <ele>452.4</ele>
        <time>2020-05-04T12:34:52.942Z</time>
      </trkpt>
      <trkpt lat="46.22846" lon="6.12236">
        <ele>452.5</ele>
        <time>2020-05-04T12:34:54.022Z</time>
      </trkpt>
      <trkpt lat="46.22843" lon="6.12244">
        <ele>452.6</ele>
        <time>2020-05-04T12:34:55.321Z</time>
      </trkpt>
      <trkpt lat="46.22809" lon="6.1231">
        <ele>459.1</ele>
        <time>2020-05-04T12:35:28.071Z</time>
      </trkpt>
      <trkpt lat="46.22808" lon="6.12313">
        <ele>459.2</ele>
        <time>2020-05-04T12:35:28.786Z</time>
      </trkpt>
      <trkpt lat="46.22806" lon="6.12315">
        <ele>459.2</ele>
        <time>2020-05-04T12:35:29.275Z</time>
      </trkpt>
      <trkpt lat="46.22803" lon="6.12315">
        <ele>459.3</ele>
        <time>2020-05-04T12:35:30.009Z</time>
      </trkpt>
      <trkpt lat="46.228" lon="6.12315">
        <ele>459.4</ele>
        <time>2020-05-04T12:35:30.915Z</time>
      </trkpt>
      <trkpt lat="46.22794" lon="6.12313">
        <ele>459.5</ele>
        <time>2020-05-04T12:35:32.200Z</time>
      </trkpt>
      <trkpt lat="46.22787" lon="6.1231">
        <ele>459.6</ele>
        <time>2020-05-04T12:35:33.879Z</time>
      </trkpt>
      <trkpt lat="46.22778" lon="6.12304">
        <ele>459.7</ele>
        <time>2020-05-04T12:35:35.942Z</time>
      </trkpt>
      <trkpt lat="46.22768" lon="6.12298">
        <ele>459.6</ele>
        <time>2020-05-04T12:35:37.490Z</time>
      </trkpt>
      <trkpt lat="46.22759" lon="6.12291">
        <ele>459.5</ele>
        <time>2020-05-04T12:35:39.014Z</time>
      </trkpt>
      <trkpt lat="46.22751" lon="6.12282">
        <ele>459.1</ele>
        <time>2020-05-04T12:35:40.135Z</time>
      </trkpt>
      <trkpt lat="46.22737" lon="6.12268">
        <ele>458.8</ele>
        <time>2020-05-04T12:35:42.471Z</time>
      </trkpt>
      <trkpt lat="46.22721" lon="6.12249">
        <ele>457.4</ele>
        <time>2020-05-04T12:35:44.395Z</time>
      </trkpt>
      <trkpt lat="46.22715" lon="6.12242">
        <ele>457.4</ele>
        <time>2020-05-04T12:35:45.805Z</time>
      </trkpt>
      <trkpt lat="46.22708" lon="6.12233">
        <ele>457.3</ele>
        <time>2020-05-04T12:35:47.204Z</time>
      </trkpt>
      <trkpt lat="46.22699" lon="6.12222">
        <ele>457.3</ele>
        <time>2020-05-04T12:35:49.481Z</time>
      </trkpt>
      <trkpt lat="46.22694" lon="6.12215">
        <ele>457.3</ele>
        <time>2020-05-04T12:35:50.700Z</time>
      </trkpt>
      <trkpt lat="46.22689" lon="6.12212">
        <ele>457.4</ele>
        <time>2020-05-04T12:35:51.926Z</time>
      </trkpt>
      <trkpt lat="46.22685" lon="6.12209">
        <ele>457.4</ele>
        <time>2020-05-04T12:35:52.787Z</time>
      </trkpt>
      <trkpt lat="46.22681" lon="6.1221">
        <ele>457.5</ele>
        <time>2020-05-04T12:35:53.857Z</time>
      </trkpt>
      <trkpt lat="46.22677" lon="6.12214">
        <ele>457.4</ele>
        <time>2020-05-04T12:35:54.465Z</time>
      </trkpt>
      <trkpt lat="46.22674" lon="6.12219">
        <ele>457.4</ele>
        <time>2020-05-04T12:35:55.335Z</time>
      </trkpt>
      <trkpt lat="46.22672" lon="6.12224">
        <ele>457.3</ele>
        <time>2020-05-04T12:35:55.879Z</time>
      </trkpt>
      <trkpt lat="46.2267" lon="6.12231">
        <ele>457.3</ele>
        <time>2020-05-04T12:35:56.867Z</time>
      </trkpt>
      <trkpt lat="46.22666" lon="6.12239">
        <ele>457.7</ele>
        <time>2020-05-04T12:35:59.293Z</time>
      </trkpt>
      <trkpt lat="46.2266" lon="6.12251">
        <ele>457.1</ele>
        <time>2020-05-04T12:36:00.201Z</time>
      </trkpt>
      <trkpt lat="46.22621" lon="6.12318">
        <ele>456.8</ele>
        <time>2020-05-04T12:36:10.944Z</time>
      </trkpt>
      <trkpt lat="46.22615" lon="6.12328">
        <ele>456.6</ele>
        <time>2020-05-04T12:36:12.062Z</time>
      </trkpt>
      <trkpt lat="46.22601" lon="6.12349">
        <ele>455.2</ele>
        <time>2020-05-04T12:36:13.923Z</time>
      </trkpt>
      <trkpt lat="46.22591" lon="6.12365">
        <ele>455</ele>
        <time>2020-05-04T12:36:16.065Z</time>
      </trkpt>
      <trkpt lat="46.22574" lon="6.12398">
        <ele>454.4</ele>
        <time>2020-05-04T12:36:19.761Z</time>
      </trkpt>
      <trkpt lat="46.22571" lon="6.12402">
        <ele>454.4</ele>
        <time>2020-05-04T12:36:20.512Z</time>
      </trkpt>
      <trkpt lat="46.22568" lon="6.12404">
        <ele>454.5</ele>
        <time>2020-05-04T12:36:21.410Z</time>
      </trkpt>
      <trkpt lat="46.22563" lon="6.12403">
        <ele>454.8</ele>
        <time>2020-05-04T12:36:23.138Z</time>
      </trkpt>
      <trkpt lat="46.22558" lon="6.124">
        <ele>455.2</ele>
        <time>2020-05-04T12:36:25.208Z</time>
      </trkpt>
      <trkpt lat="46.22552" lon="6.12395">
        <ele>455.6</ele>
        <time>2020-05-04T12:36:27.639Z</time>
      </trkpt>
      <trkpt lat="46.225" lon="6.12355">
        <ele>458.7</ele>
        <time>2020-05-04T12:36:47.783Z</time>
      </trkpt>
      <trkpt lat="46.22412" lon="6.12286">
        <ele>456.6</ele>
        <time>2020-05-04T12:37:00.630Z</time>
      </trkpt>
      <trkpt lat="46.224" lon="6.12277">
        <ele>456.2</ele>
        <time>2020-05-04T12:37:02.230Z</time>
      </trkpt>
      <trkpt lat="46.22393" lon="6.12272">
        <ele>456</ele>
        <time>2020-05-04T12:37:03.236Z</time>
      </trkpt>
      <trkpt lat="46.22387" lon="6.12269">
        <ele>456</ele>
        <time>2020-05-04T12:37:04.474Z</time>
      </trkpt>
      <trkpt lat="46.22381" lon="6.12266">
        <ele>456</ele>
        <time>2020-05-04T12:37:05.621Z</time>
      </trkpt>
      <trkpt lat="46.22374" lon="6.12265">
        <ele>456</ele>
        <time>2020-05-04T12:37:06.999Z</time>
      </trkpt>
      <trkpt lat="46.22366" lon="6.12266">
        <ele>455.9</ele>
        <time>2020-05-04T12:37:08.097Z</time>
      </trkpt>
      <trkpt lat="46.22359" lon="6.12268">
        <ele>455.9</ele>
        <time>2020-05-04T12:37:09.588Z</time>
      </trkpt>
      <trkpt lat="46.22351" lon="6.12271">
        <ele>455.9</ele>
        <time>2020-05-04T12:37:11.110Z</time>
      </trkpt>
      <trkpt lat="46.22345" lon="6.12275">
        <ele>455.9</ele>
        <time>2020-05-04T12:37:12.353Z</time>
      </trkpt>
      <trkpt lat="46.2234" lon="6.1228">
        <ele>456.1</ele>
        <time>2020-05-04T12:37:13.946Z</time>
      </trkpt>
      <trkpt lat="46.22336" lon="6.12286">
        <ele>456.4</ele>
        <time>2020-05-04T12:37:15.921Z</time>
      </trkpt>
      <trkpt lat="46.22333" lon="6.12292">
        <ele>454.8</ele>
        <time>2020-05-04T12:37:16.438Z</time>
      </trkpt>
      <trkpt lat="46.22328" lon="6.123">
        <ele>455.1</ele>
        <time>2020-05-04T12:37:18.631Z</time>
      </trkpt>
      <trkpt lat="46.22324" lon="6.12309">
        <ele>455.6</ele>
        <time>2020-05-04T12:37:21.388Z</time>
      </trkpt>
      <trkpt lat="46.22318" lon="6.12324">
        <ele>456.3</ele>
        <time>2020-05-04T12:37:25.731Z</time>
      </trkpt>
      <trkpt lat="46.22297" lon="6.12379">
        <ele>457</ele>
        <time>2020-05-04T12:37:35.387Z</time>
      </trkpt>
      <trkpt lat="46.22276" lon="6.12438">
        <ele>455.2</ele>
        <time>2020-05-04T12:37:40.306Z</time>
      </trkpt>
      <trkpt lat="46.22257" lon="6.12487">
        <ele>452.4</ele>
        <time>2020-05-04T12:37:43.937Z</time>
      </trkpt>
      <trkpt lat="46.22255" lon="6.12492">
        <ele>451.7</ele>
        <time>2020-05-04T12:37:44.272Z</time>
      </trkpt>
      <trkpt lat="46.22255" lon="6.12497">
        <ele>451.2</ele>
        <time>2020-05-04T12:37:44.567Z</time>
      </trkpt>
      <trkpt lat="46.22256" lon="6.12501">
        <ele>450.2</ele>
        <time>2020-05-04T12:37:44.869Z</time>
      </trkpt>
      <trkpt lat="46.22257" lon="6.12505">
        <ele>450.3</ele>
        <time>2020-05-04T12:37:45.683Z</time>
      </trkpt>
      <trkpt lat="46.22259" lon="6.12508">
        <ele>450.4</ele>
        <time>2020-05-04T12:37:46.494Z</time>
      </trkpt>
      <trkpt lat="46.22263" lon="6.12512">
        <ele>450.5</ele>
        <time>2020-05-04T12:37:47.539Z</time>
      </trkpt>
      <trkpt lat="46.22267" lon="6.12514">
        <ele>450.6</ele>
        <time>2020-05-04T12:37:48.640Z</time>
      </trkpt>
      <trkpt lat="46.22309" lon="6.12546">
        <ele>451</ele>
        <time>2020-05-04T12:37:58.444Z</time>
      </trkpt>
      <trkpt lat="46.22443" lon="6.12655">
        <ele>449.4</ele>
        <time>2020-05-04T12:38:21.150Z</time>
      </trkpt>
      <trkpt lat="46.22445" lon="6.12658">
        <ele>449.4</ele>
        <time>2020-05-04T12:38:21.701Z</time>
      </trkpt>
      <trkpt lat="46.22446" lon="6.12662">
        <ele>449.3</ele>
        <time>2020-05-04T12:38:22.059Z</time>
      </trkpt>
      <trkpt lat="46.22446" lon="6.12668">
        <ele>447.3</ele>
        <time>2020-05-04T12:38:22.424Z</time>
      </trkpt>
      <trkpt lat="46.22444" lon="6.12673">
        <ele>447.2</ele>
        <time>2020-05-04T12:38:22.880Z</time>
      </trkpt>
      <trkpt lat="46.22441" lon="6.12677">
        <ele>447.2</ele>
        <time>2020-05-04T12:38:23.724Z</time>
      </trkpt>
      <trkpt lat="46.2242" lon="6.12706">
        <ele>446.5</ele>
        <time>2020-05-04T12:38:27.325Z</time>
      </trkpt>
      <trkpt lat="46.22398" lon="6.12738">
        <ele>443.9</ele>
        <time>2020-05-04T12:38:30.267Z</time>
      </trkpt>
      <trkpt lat="46.22392" lon="6.12745">
        <ele>444</ele>
        <time>2020-05-04T12:38:31.794Z</time>
      </trkpt>
      <trkpt lat="46.22387" lon="6.12751">
        <ele>443.1</ele>
        <time>2020-05-04T12:38:32.434Z</time>
      </trkpt>
      <trkpt lat="46.22381" lon="6.12756">
        <ele>443.1</ele>
        <time>2020-05-04T12:38:33.699Z</time>
      </trkpt>
      <trkpt lat="46.22374" lon="6.12762">
        <ele>443.2</ele>
        <time>2020-05-04T12:38:35.468Z</time>
      </trkpt>
      <trkpt lat="46.22362" lon="6.1277">
        <ele>443.2</ele>
        <time>2020-05-04T12:38:37.926Z</time>
      </trkpt>
      <trkpt lat="46.22354" lon="6.12776">
        <ele>443.2</ele>
        <time>2020-05-04T12:38:39.743Z</time>
      </trkpt>
      <trkpt lat="46.22344" lon="6.12782">
        <ele>443.1</ele>
        <time>2020-05-04T12:38:41.275Z</time>
      </trkpt>
      <trkpt lat="46.22338" lon="6.12788">
        <ele>443.1</ele>
        <time>2020-05-04T12:38:42.623Z</time>
      </trkpt>
      <trkpt lat="46.22333" lon="6.12793">
        <ele>443</ele>
        <time>2020-05-04T12:38:43.614Z</time>
      </trkpt>
      <trkpt lat="46.22328" lon="6.12798">
        <ele>442.9</ele>
        <time>2020-05-04T12:38:44.351Z</time>
      </trkpt>
      <trkpt lat="46.22323" lon="6.12805">
        <ele>442.8</ele>
        <time>2020-05-04T12:38:45.290Z</time>
      </trkpt>
      <trkpt lat="46.22318" lon="6.12813">
        <ele>442.7</ele>
        <time>2020-05-04T12:38:46.423Z</time>
      </trkpt>
      <trkpt lat="46.22313" lon="6.12822">
        <ele>442.7</ele>
        <time>2020-05-04T12:38:47.981Z</time>
      </trkpt>
      <trkpt lat="46.22307" lon="6.12834">
        <ele>442.6</ele>
        <time>2020-05-04T12:38:49.475Z</time>
      </trkpt>
      <trkpt lat="46.22292" lon="6.12864">
        <ele>442.8</ele>
        <time>2020-05-04T12:38:54.688Z</time>
      </trkpt>
      <trkpt lat="46.22279" lon="6.12885">
        <ele>442.6</ele>
        <time>2020-05-04T12:38:57.570Z</time>
      </trkpt>
      <trkpt lat="46.22268" lon="6.12903">
        <ele>442.1</ele>
        <time>2020-05-04T12:38:59.574Z</time>
      </trkpt>
      <trkpt lat="46.22256" lon="6.12922">
        <ele>440.7</ele>
        <time>2020-05-04T12:39:01.203Z</time>
      </trkpt>
      <trkpt lat="46.22249" lon="6.12932">
        <ele>439</ele>
        <time>2020-05-04T12:39:02.087Z</time>
      </trkpt>
      <trkpt lat="46.22242" lon="6.12942">
        <ele>438.1</ele>
        <time>2020-05-04T12:39:02.986Z</time>
      </trkpt>
      <trkpt lat="46.22235" lon="6.1295">
        <ele>437.5</ele>
        <time>2020-05-04T12:39:03.794Z</time>
      </trkpt>
      <trkpt lat="46.22227" lon="6.12958">
        <ele>437.1</ele>
        <time>2020-05-04T12:39:04.755Z</time>
      </trkpt>
      <trkpt lat="46.22218" lon="6.12965">
        <ele>436.8</ele>
        <time>2020-05-04T12:39:06.001Z</time>
      </trkpt>
      <trkpt lat="46.22208" lon="6.12971">
        <ele>436.6</ele>
        <time>2020-05-04T12:39:07.450Z</time>
      </trkpt>
      <trkpt lat="46.22199" lon="6.12975">
        <ele>436.5</ele>
        <time>2020-05-04T12:39:08.709Z</time>
      </trkpt>
      <trkpt lat="46.22179" lon="6.12985">
        <ele>436.2</ele>
        <time>2020-05-04T12:39:11.770Z</time>
      </trkpt>
      <trkpt lat="46.22166" lon="6.1299">
        <ele>434.7</ele>
        <time>2020-05-04T12:39:13.018Z</time>
      </trkpt>
      <trkpt lat="46.22154" lon="6.12994">
        <ele>434.2</ele>
        <time>2020-05-04T12:39:14.217Z</time>
      </trkpt>
      <trkpt lat="46.22145" lon="6.12995">
        <ele>433.4</ele>
        <time>2020-05-04T12:39:15.108Z</time>
      </trkpt>
      <trkpt lat="46.22136" lon="6.12995">
        <ele>432.8</ele>
        <time>2020-05-04T12:39:15.920Z</time>
      </trkpt>
      <trkpt lat="46.22128" lon="6.12995">
        <ele>432.2</ele>
        <time>2020-05-04T12:39:16.623Z</time>
      </trkpt>
      <trkpt lat="46.2212" lon="6.12993">
        <ele>431.6</ele>
        <time>2020-05-04T12:39:17.450Z</time>
      </trkpt>
      <trkpt lat="46.22113" lon="6.12991">
        <ele>431.2</ele>
        <time>2020-05-04T12:39:18.069Z</time>
      </trkpt>
      <trkpt lat="46.22104" lon="6.12987">
        <ele>430.6</ele>
        <time>2020-05-04T12:39:18.875Z</time>
      </trkpt>
      <trkpt lat="46.22095" lon="6.12983">
        <ele>430.3</ele>
        <time>2020-05-04T12:39:19.941Z</time>
      </trkpt>
      <trkpt lat="46.22083" lon="6.12975">
        <ele>427.8</ele>
        <time>2020-05-04T12:39:21.142Z</time>
      </trkpt>
      <trkpt lat="46.22073" lon="6.12969">
        <ele>427.8</ele>
        <time>2020-05-04T12:39:23.327Z</time>
      </trkpt>
      <trkpt lat="46.22064" lon="6.12963">
        <ele>427.8</ele>
        <time>2020-05-04T12:39:25.146Z</time>
      </trkpt>
      <trkpt lat="46.22057" lon="6.12958">
        <ele>427.8</ele>
        <time>2020-05-04T12:39:26.660Z</time>
      </trkpt>
      <trkpt lat="46.2205" lon="6.12951">
        <ele>427.8</ele>
        <time>2020-05-04T12:39:28.253Z</time>
      </trkpt>
      <trkpt lat="46.22043" lon="6.12942">
        <ele>428</ele>
        <time>2020-05-04T12:39:30.543Z</time>
      </trkpt>
      <trkpt lat="46.22034" lon="6.1293">
        <ele>428.2</ele>
        <time>2020-05-04T12:39:33.255Z</time>
      </trkpt>
      <trkpt lat="46.22021" lon="6.12911">
        <ele>429.8</ele>
        <time>2020-05-04T12:39:41.381Z</time>
      </trkpt>
      <trkpt lat="46.21983" lon="6.12848">
        <ele>426.7</ele>
        <time>2020-05-04T12:39:46.756Z</time>
      </trkpt>
      <trkpt lat="46.21953" lon="6.128">
        <ele>425.5</ele>
        <time>2020-05-04T12:39:52.203Z</time>
      </trkpt>
      <trkpt lat="46.21939" lon="6.12779">
        <ele>424.9</ele>
        <time>2020-05-04T12:39:54.613Z</time>
      </trkpt>
      <trkpt lat="46.21928" lon="6.12764">
        <ele>424</ele>
        <time>2020-05-04T12:39:55.943Z</time>
      </trkpt>
      <trkpt lat="46.21912" lon="6.12742">
        <ele>422.3</ele>
        <time>2020-05-04T12:39:57.974Z</time>
      </trkpt>
      <trkpt lat="46.21891" lon="6.12715">
        <ele>423</ele>
        <time>2020-05-04T12:40:04.874Z</time>
      </trkpt>
      <trkpt lat="46.21874" lon="6.12694">
        <ele>423.6</ele>
        <time>2020-05-04T12:40:10.565Z</time>
      </trkpt>
      <trkpt lat="46.21848" lon="6.12663">
        <ele>426.9</ele>
        <time>2020-05-04T12:40:26.945Z</time>
      </trkpt>
      <trkpt lat="46.21823" lon="6.12634">
        <ele>427.5</ele>
        <time>2020-05-04T12:40:34.408Z</time>
      </trkpt>
      <trkpt lat="46.21818" lon="6.12626">
        <ele>427.6</ele>
        <time>2020-05-04T12:40:35.999Z</time>
      </trkpt>
      <trkpt lat="46.21815" lon="6.12619">
        <ele>427.7</ele>
        <time>2020-05-04T12:40:37.324Z</time>
      </trkpt>
      <trkpt lat="46.21811" lon="6.12615">
        <ele>427.8</ele>
        <time>2020-05-04T12:40:38.355Z</time>
      </trkpt>
      <trkpt lat="46.21807" lon="6.12612">
        <ele>427.8</ele>
        <time>2020-05-04T12:40:39.233Z</time>
      </trkpt>
      <trkpt lat="46.21803" lon="6.12612">
        <ele>427.8</ele>
        <time>2020-05-04T12:40:39.977Z</time>
      </trkpt>
      <trkpt lat="46.21797" lon="6.12615">
        <ele>427.7</ele>
        <time>2020-05-04T12:40:40.875Z</time>
      </trkpt>
      <trkpt lat="46.21791" lon="6.1262">
        <ele>427.6</ele>
        <time>2020-05-04T12:40:41.911Z</time>
      </trkpt>
      <trkpt lat="46.21785" lon="6.12626">
        <ele>427.4</ele>
        <time>2020-05-04T12:40:42.808Z</time>
      </trkpt>
      <trkpt lat="46.2178" lon="6.12631">
        <ele>427.3</ele>
        <time>2020-05-04T12:40:43.640Z</time>
      </trkpt>
      <trkpt lat="46.21765" lon="6.12654">
        <ele>426.4</ele>
        <time>2020-05-04T12:40:45.844Z</time>
      </trkpt>
      <trkpt lat="46.21752" lon="6.12676">
        <ele>424.1</ele>
        <time>2020-05-04T12:40:47.700Z</time>
      </trkpt>
      <trkpt lat="46.21743" lon="6.12693">
        <ele>423</ele>
        <time>2020-05-04T12:40:49.079Z</time>
      </trkpt>
      <trkpt lat="46.21733" lon="6.12712">
        <ele>421.9</ele>
        <time>2020-05-04T12:40:50.598Z</time>
      </trkpt>
      <trkpt lat="46.21723" lon="6.12734">
        <ele>421</ele>
        <time>2020-05-04T12:40:52.424Z</time>
      </trkpt>
      <trkpt lat="46.21713" lon="6.12755">
        <ele>417.8</ele>
        <time>2020-05-04T12:40:54.062Z</time>
      </trkpt>
      <trkpt lat="46.21704" lon="6.12776">
        <ele>417.8</ele>
        <time>2020-05-04T12:40:57.197Z</time>
      </trkpt>
      <trkpt lat="46.21698" lon="6.12791">
        <ele>417.4</ele>
        <time>2020-05-04T12:40:58.679Z</time>
      </trkpt>
      <trkpt lat="46.21688" lon="6.12816">
        <ele>416.4</ele>
        <time>2020-05-04T12:41:00.542Z</time>
      </trkpt>
      <trkpt lat="46.21677" lon="6.1285">
        <ele>413.9</ele>
        <time>2020-05-04T12:41:02.940Z</time>
      </trkpt>
      <trkpt lat="46.21665" lon="6.12881">
        <ele>416</ele>
        <time>2020-05-04T12:41:13.583Z</time>
      </trkpt>
      <trkpt lat="46.21651" lon="6.12919">
        <ele>412.5</ele>
        <time>2020-05-04T12:41:16.367Z</time>
      </trkpt>
      <trkpt lat="46.2164" lon="6.1295">
        <ele>412.3</ele>
        <time>2020-05-04T12:41:20.027Z</time>
      </trkpt>
      <trkpt lat="46.21631" lon="6.12975">
        <ele>411.6</ele>
        <time>2020-05-04T12:41:22.205Z</time>
      </trkpt>
      <trkpt lat="46.21612" lon="6.13022">
        <ele>410.1</ele>
        <time>2020-05-04T12:41:26.151Z</time>
      </trkpt>
      <trkpt lat="46.21597" lon="6.13065">
        <ele>410.9</ele>
        <time>2020-05-04T12:41:34.298Z</time>
      </trkpt>
      <trkpt lat="46.21595" lon="6.13069">
        <ele>411</ele>
        <time>2020-05-04T12:41:35.255Z</time>
      </trkpt>
      <trkpt lat="46.21592" lon="6.13073">
        <ele>411.2</ele>
        <time>2020-05-04T12:41:36.615Z</time>
      </trkpt>
      <trkpt lat="46.21589" lon="6.13075">
        <ele>411.4</ele>
        <time>2020-05-04T12:41:37.727Z</time>
      </trkpt>
      <trkpt lat="46.21586" lon="6.13074">
        <ele>411.4</ele>
        <time>2020-05-04T12:41:38.358Z</time>
      </trkpt>
      <trkpt lat="46.21581" lon="6.13072">
        <ele>412.3</ele>
        <time>2020-05-04T12:41:41.612Z</time>
      </trkpt>
      <trkpt lat="46.21574" lon="6.13067">
        <ele>412.4</ele>
        <time>2020-05-04T12:41:43.373Z</time>
      </trkpt>
      <trkpt lat="46.21553" lon="6.13055">
        <ele>412.7</ele>
        <time>2020-05-04T12:41:48.286Z</time>
      </trkpt>
      <trkpt lat="46.21509" lon="6.13034">
        <ele>413.1</ele>
        <time>2020-05-04T12:41:57.902Z</time>
      </trkpt>
      <trkpt lat="46.21493" lon="6.13027">
        <ele>413.9</ele>
        <time>2020-05-04T12:42:03.366Z</time>
      </trkpt>
      <trkpt lat="46.2147" lon="6.13013">
        <ele>413.8</ele>
        <time>2020-05-04T12:42:07.807Z</time>
      </trkpt>
      <trkpt lat="46.21451" lon="6.13001">
        <ele>413.8</ele>
        <time>2020-05-04T12:42:11.744Z</time>
      </trkpt>
      <trkpt lat="46.21428" lon="6.12986">
        <ele>413.6</ele>
        <time>2020-05-04T12:42:15.655Z</time>
      </trkpt>
      <trkpt lat="46.21412" lon="6.12976">
        <ele>412.5</ele>
        <time>2020-05-04T12:42:17.198Z</time>
      </trkpt>
      <trkpt lat="46.21392" lon="6.12964">
        <ele>412.3</ele>
        <time>2020-05-04T12:42:20.362Z</time>
      </trkpt>
      <trkpt lat="46.21385" lon="6.12961">
        <ele>412.3</ele>
        <time>2020-05-04T12:42:21.814Z</time>
      </trkpt>
      <trkpt lat="46.2138" lon="6.12959">
        <ele>412.3</ele>
        <time>2020-05-04T12:42:22.785Z</time>
      </trkpt>
      <trkpt lat="46.21375" lon="6.12959">
        <ele>412.3</ele>
        <time>2020-05-04T12:42:23.664Z</time>
      </trkpt>
      <trkpt lat="46.2137" lon="6.12962">
        <ele>412.2</ele>
        <time>2020-05-04T12:42:24.379Z</time>
      </trkpt>
      <trkpt lat="46.21367" lon="6.12965">
        <ele>412.2</ele>
        <time>2020-05-04T12:42:25.076Z</time>
      </trkpt>
      <trkpt lat="46.21363" lon="6.12973">
        <ele>412.2</ele>
        <time>2020-05-04T12:42:26.423Z</time>
      </trkpt>
      <trkpt lat="46.21358" lon="6.12983">
        <ele>412.2</ele>
        <time>2020-05-04T12:42:28.062Z</time>
      </trkpt>
      <trkpt lat="46.21319" lon="6.13065">
        <ele>415.4</ele>
        <time>2020-05-04T12:42:50.489Z</time>
      </trkpt>
      <trkpt lat="46.21255" lon="6.13197">
        <ele>416.2</ele>
        <time>2020-05-04T12:43:13.255Z</time>
      </trkpt>
      <trkpt lat="46.21209" lon="6.13293">
        <ele>416.2</ele>
        <time>2020-05-04T12:43:28.683Z</time>
      </trkpt>
      <trkpt lat="46.21182" lon="6.1335">
        <ele>415</ele>
        <time>2020-05-04T12:43:34.601Z</time>
      </trkpt>
      <trkpt lat="46.21158" lon="6.13406">
        <ele>414.2</ele>
        <time>2020-05-04T12:43:40.689Z</time>
      </trkpt>
      <trkpt lat="46.21151" lon="6.13422">
        <ele>413.7</ele>
        <time>2020-05-04T12:43:42.125Z</time>
      </trkpt>
      <trkpt lat="46.21145" lon="6.13434">
        <ele>413.2</ele>
        <time>2020-05-04T12:43:43.103Z</time>
      </trkpt>
      <trkpt lat="46.21136" lon="6.13449">
        <ele>412.7</ele>
        <time>2020-05-04T12:43:44.604Z</time>
      </trkpt>
      <trkpt lat="46.21128" lon="6.13466">
        <ele>412.5</ele>
        <time>2020-05-04T12:43:46.708Z</time>
      </trkpt>
      <trkpt lat="46.21106" lon="6.13516">
        <ele>411.3</ele>
        <time>2020-05-04T12:43:51.526Z</time>
      </trkpt>
      <trkpt lat="46.211" lon="6.13529">
        <ele>411.2</ele>
        <time>2020-05-04T12:43:53.155Z</time>
      </trkpt>
      <trkpt lat="46.21095" lon="6.13543">
        <ele>411.1</ele>
        <time>2020-05-04T12:43:54.800Z</time>
      </trkpt>
      <trkpt lat="46.21091" lon="6.13556">
        <ele>411.2</ele>
        <time>2020-05-04T12:43:56.824Z</time>
      </trkpt>
      <trkpt lat="46.21086" lon="6.13569">
        <ele>411.4</ele>
        <time>2020-05-04T12:43:59.207Z</time>
      </trkpt>
      <trkpt lat="46.21082" lon="6.13582">
        <ele>411.7</ele>
        <time>2020-05-04T12:44:01.736Z</time>
      </trkpt>
      <trkpt lat="46.21029" lon="6.13704">
        <ele>405.8</ele>
        <time>2020-05-04T12:44:10.677Z</time>
      </trkpt>
      <trkpt lat="46.21021" lon="6.13723">
        <ele>405.5</ele>
        <time>2020-05-04T12:44:12.757Z</time>
      </trkpt>
      <trkpt lat="46.21017" lon="6.13734">
        <ele>405.3</ele>
        <time>2020-05-04T12:44:13.908Z</time>
      </trkpt>
      <trkpt lat="46.21013" lon="6.13744">
        <ele>405.2</ele>
        <time>2020-05-04T12:44:14.969Z</time>
      </trkpt>
      <trkpt lat="46.21009" lon="6.13755">
        <ele>404.3</ele>
        <time>2020-05-04T12:44:15.775Z</time>
      </trkpt>
      <trkpt lat="46.21005" lon="6.13768">
        <ele>403.9</ele>
        <time>2020-05-04T12:44:16.831Z</time>
      </trkpt>
      <trkpt lat="46.20965" lon="6.13862">
        <ele>400.5</ele>
        <time>2020-05-04T12:44:24.541Z</time>
      </trkpt>
      <trkpt lat="46.20962" lon="6.13867">
        <ele>400.4</ele>
        <time>2020-05-04T12:44:25.214Z</time>
      </trkpt>
      <trkpt lat="46.20956" lon="6.13874">
        <ele>400.2</ele>
        <time>2020-05-04T12:44:26.097Z</time>
      </trkpt>
      <trkpt lat="46.20949" lon="6.13885">
        <ele>399.9</ele>
        <time>2020-05-04T12:44:27.329Z</time>
      </trkpt>
      <trkpt lat="46.20941" lon="6.13897">
        <ele>399.4</ele>
        <time>2020-05-04T12:44:28.484Z</time>
      </trkpt>
      <trkpt lat="46.20902" lon="6.13974">
        <ele>392.3</ele>
        <time>2020-05-04T12:44:34.579Z</time>
      </trkpt>
      <trkpt lat="46.20887" lon="6.13993">
        <ele>391.8</ele>
        <time>2020-05-04T12:44:37.020Z</time>
      </trkpt>
      <trkpt lat="46.2086" lon="6.14041">
        <ele>390.2</ele>
        <time>2020-05-04T12:44:41.631Z</time>
      </trkpt>
      <trkpt lat="46.20856" lon="6.1405">
        <ele>390.2</ele>
        <time>2020-05-04T12:44:43.119Z</time>
      </trkpt>
      <trkpt lat="46.20852" lon="6.1406">
        <ele>390</ele>
        <time>2020-05-04T12:44:44.085Z</time>
      </trkpt>
      <trkpt lat="46.20849" lon="6.14068">
        <ele>389.9</ele>
        <time>2020-05-04T12:44:44.991Z</time>
      </trkpt>
      <trkpt lat="46.20847" lon="6.14078">
        <ele>389.7</ele>
        <time>2020-05-04T12:44:45.787Z</time>
      </trkpt>
      <trkpt lat="46.20846" lon="6.14091">
        <ele>390</ele>
        <time>2020-05-04T12:44:48.280Z</time>
      </trkpt>
      <trkpt lat="46.20842" lon="6.1413">
        <ele>390.7</ele>
        <time>2020-05-04T12:44:55.059Z</time>
      </trkpt>
      <trkpt lat="46.20829" lon="6.14205">
        <ele>390.2</ele>
        <time>2020-05-04T12:45:03.086Z</time>
      </trkpt>
      <trkpt lat="46.20826" lon="6.14223">
        <ele>390</ele>
        <time>2020-05-04T12:45:04.894Z</time>
      </trkpt>
      <trkpt lat="46.20823" lon="6.14231">
        <ele>389.9</ele>
        <time>2020-05-04T12:45:05.774Z</time>
      </trkpt>
      <trkpt lat="46.20819" lon="6.14236">
        <ele>389.9</ele>
        <time>2020-05-04T12:45:06.694Z</time>
      </trkpt>
      <trkpt lat="46.20814" lon="6.1424">
        <ele>390</ele>
        <time>2020-05-04T12:45:08.003Z</time>
      </trkpt>
      <trkpt lat="46.2081" lon="6.14243">
        <ele>390.1</ele>
        <time>2020-05-04T12:45:09.104Z</time>
      </trkpt>
      <trkpt lat="46.20806" lon="6.14244">
        <ele>390.2</ele>
        <time>2020-05-04T12:45:10.191Z</time>
      </trkpt>
      <trkpt lat="46.208" lon="6.14244">
        <ele>390.4</ele>
        <time>2020-05-04T12:45:11.813Z</time>
      </trkpt>
      <trkpt lat="46.20791" lon="6.1424">
        <ele>390.7</ele>
        <time>2020-05-04T12:45:14.293Z</time>
      </trkpt>
      <trkpt lat="46.20776" lon="6.1423">
        <ele>391</ele>
        <time>2020-05-04T12:45:18.152Z</time>
      </trkpt>
      <trkpt lat="46.20773" lon="6.14227">
        <ele>391</ele>
        <time>2020-05-04T12:45:18.811Z</time>
      </trkpt>
      <trkpt lat="46.20769" lon="6.14222">
        <ele>391</ele>
        <time>2020-05-04T12:45:19.708Z</time>
      </trkpt>
      <trkpt lat="46.20767" lon="6.14219">
        <ele>391</ele>
        <time>2020-05-04T12:45:20.305Z</time>
      </trkpt>
      <trkpt lat="46.20763" lon="6.14216">
        <ele>391</ele>
        <time>2020-05-04T12:45:21.244Z</time>
      </trkpt>
      <trkpt lat="46.20723" lon="6.14194">
        <ele>390.8</ele>
        <time>2020-05-04T12:45:28.828Z</time>
      </trkpt>
      <trkpt lat="46.2072" lon="6.14193">
        <ele>390.8</ele>
        <time>2020-05-04T12:45:29.459Z</time>
      </trkpt>
      <trkpt lat="46.20717" lon="6.14194">
        <ele>390.8</ele>
        <time>2020-05-04T12:45:29.985Z</time>
      </trkpt>
      <trkpt lat="46.20715" lon="6.14196">
        <ele>390.8</ele>
        <time>2020-05-04T12:45:30.543Z</time>
      </trkpt>
      <trkpt lat="46.20712" lon="6.14199">
        <ele>390.8</ele>
        <time>2020-05-04T12:45:31.193Z</time>
      </trkpt>
      <trkpt lat="46.20708" lon="6.14202">
        <ele>390.9</ele>
        <time>2020-05-04T12:45:32.228Z</time>
      </trkpt>
      <trkpt lat="46.20704" lon="6.14207">
        <ele>390.9</ele>
        <time>2020-05-04T12:45:33.194Z</time>
      </trkpt>
      <trkpt lat="46.207" lon="6.1421">
        <ele>391</ele>
        <time>2020-05-04T12:45:34.367Z</time>
      </trkpt>
      <trkpt lat="46.20581" lon="6.1429">
        <ele>381.1</ele>
        <time>2020-05-04T12:45:46.469Z</time>
      </trkpt>
      <trkpt lat="46.20566" lon="6.14299">
        <ele>380.9</ele>
        <time>2020-05-04T12:45:48.765Z</time>
      </trkpt>
      <trkpt lat="46.20562" lon="6.14301">
        <ele>380.8</ele>
        <time>2020-05-04T12:45:49.319Z</time>
      </trkpt>
      <trkpt lat="46.20555" lon="6.14298">
        <ele>380.4</ele>
        <time>2020-05-04T12:45:49.938Z</time>
      </trkpt>
      <trkpt lat="46.2055" lon="6.14293">
        <ele>380.1</ele>
        <time>2020-05-04T12:45:50.563Z</time>
      </trkpt>
      <trkpt lat="46.20538" lon="6.14283">
        <ele>379.4</ele>
        <time>2020-05-04T12:45:51.888Z</time>
      </trkpt>
      <trkpt lat="46.20535" lon="6.14281">
        <ele>379.2</ele>
        <time>2020-05-04T12:45:52.201Z</time>
      </trkpt>
      <trkpt lat="46.20531" lon="6.1428">
        <ele>379</ele>
        <time>2020-05-04T12:45:52.612Z</time>
      </trkpt>
      <trkpt lat="46.20527" lon="6.14281">
        <ele>378.8</ele>
        <time>2020-05-04T12:45:53.005Z</time>
      </trkpt>
      <trkpt lat="46.20515" lon="6.14286">
        <ele>378.5</ele>
        <time>2020-05-04T12:45:54.516Z</time>
      </trkpt>
      <trkpt lat="46.20459" lon="6.14315">
        <ele>378.2</ele>
        <time>2020-05-04T12:46:05.148Z</time>
      </trkpt>
      <trkpt lat="46.20455" lon="6.14315">
        <ele>378.3</ele>
        <time>2020-05-04T12:46:06.140Z</time>
      </trkpt>
      <trkpt lat="46.20451" lon="6.14314">
        <ele>378.4</ele>
        <time>2020-05-04T12:46:07.133Z</time>
      </trkpt>
      <trkpt lat="46.20447" lon="6.14312">
        <ele>378.4</ele>
        <time>2020-05-04T12:46:07.861Z</time>
      </trkpt>
      <trkpt lat="46.20444" lon="6.14308">
        <ele>378.4</ele>
        <time>2020-05-04T12:46:08.543Z</time>
      </trkpt>
      <trkpt lat="46.20443" lon="6.14305">
        <ele>378.4</ele>
        <time>2020-05-04T12:46:09.108Z</time>
      </trkpt>
      <trkpt lat="46.20441" lon="6.14299">
        <ele>378.3</ele>
        <time>2020-05-04T12:46:09.647Z</time>
      </trkpt>
      <trkpt lat="46.20436" lon="6.14277">
        <ele>377.9</ele>
        <time>2020-05-04T12:46:11.685Z</time>
      </trkpt>
      <trkpt lat="46.20423" lon="6.1421">
        <ele>375.7</ele>
        <time>2020-05-04T12:46:16.541Z</time>
      </trkpt>
      <trkpt lat="46.20421" lon="6.142">
        <ele>375.5</ele>
        <time>2020-05-04T12:46:17.342Z</time>
      </trkpt>
      <trkpt lat="46.20419" lon="6.14195">
        <ele>375.4</ele>
        <time>2020-05-04T12:46:17.925Z</time>
      </trkpt>
      <trkpt lat="46.20415" lon="6.14192">
        <ele>378.7</ele>
        <time>2020-05-04T12:46:20.822Z</time>
      </trkpt>
      <trkpt lat="46.20413" lon="6.14192">
        <ele>378.8</ele>
        <time>2020-05-04T12:46:21.590Z</time>
      </trkpt>
      <trkpt lat="46.20412" lon="6.14192">
        <ele>378.8</ele>
        <time>2020-05-04T12:46:21.686Z</time>
      </trkpt>
      <trkpt lat="46.20409" lon="6.14193">
        <ele>379</ele>
        <time>2020-05-04T12:46:22.894Z</time>
      </trkpt>
      <trkpt lat="46.20406" lon="6.14195">
        <ele>379.2</ele>
        <time>2020-05-04T12:46:24.100Z</time>
      </trkpt>
      <trkpt lat="46.204" lon="6.14199">
        <ele>379.7</ele>
        <time>2020-05-04T12:46:26.722Z</time>
      </trkpt>
      <trkpt lat="46.20379" lon="6.14224">
        <ele>381.2</ele>
        <time>2020-05-04T12:46:36.127Z</time>
      </trkpt>
      <trkpt lat="46.20366" lon="6.1424">
        <ele>382.2</ele>
        <time>2020-05-04T12:46:42.138Z</time>
      </trkpt>
      <trkpt lat="46.20361" lon="6.14245">
        <ele>382.6</ele>
        <time>2020-05-04T12:46:44.357Z</time>
      </trkpt>
      <trkpt lat="46.20356" lon="6.14249">
        <ele>383.1</ele>
        <time>2020-05-04T12:46:46.908Z</time>
      </trkpt>
      <trkpt lat="46.20342" lon="6.14254">
        <ele>385.5</ele>
        <time>2020-05-04T12:46:57.556Z</time>
      </trkpt>
      <trkpt lat="46.20292" lon="6.14276">
        <ele>388</ele>
        <time>2020-05-04T12:47:14.648Z</time>
      </trkpt>
      <trkpt lat="46.20238" lon="6.143">
        <ele>386.6</ele>
        <time>2020-05-04T12:47:21.697Z</time>
      </trkpt>
      <trkpt lat="46.20193" lon="6.14317">
        <ele>385.4</ele>
        <time>2020-05-04T12:47:27.373Z</time>
      </trkpt>
      <trkpt lat="46.20151" lon="6.14332">
        <ele>382.8</ele>
        <time>2020-05-04T12:47:31.235Z</time>
      </trkpt>
      <trkpt lat="46.20148" lon="6.14333">
        <ele>382.8</ele>
        <time>2020-05-04T12:47:31.859Z</time>
      </trkpt>
      <trkpt lat="46.20145" lon="6.14336">
        <ele>383.4</ele>
        <time>2020-05-04T12:47:34.398Z</time>
      </trkpt>
      <trkpt lat="46.20142" lon="6.14339">
        <ele>383.5</ele>
        <time>2020-05-04T12:47:35.398Z</time>
      </trkpt>
      <trkpt lat="46.20138" lon="6.14346">
        <ele>383.5</ele>
        <time>2020-05-04T12:47:36.508Z</time>
      </trkpt>
      <trkpt lat="46.20134" lon="6.14353">
        <ele>383.6</ele>
        <time>2020-05-04T12:47:37.930Z</time>
      </trkpt>
      <trkpt lat="46.20131" lon="6.14359">
        <ele>383.7</ele>
        <time>2020-05-04T12:47:39.122Z</time>
      </trkpt>
      <trkpt lat="46.20127" lon="6.14371">
        <ele>384</ele>
        <time>2020-05-04T12:47:41.605Z</time>
      </trkpt>
      <trkpt lat="46.20124" lon="6.14385">
        <ele>384.3</ele>
        <time>2020-05-04T12:47:44.254Z</time>
      </trkpt>
      <trkpt lat="46.20116" lon="6.14416">
        <ele>384.3</ele>
        <time>2020-05-04T12:47:48.667Z</time>
      </trkpt>
      <trkpt lat="46.20113" lon="6.14427">
        <ele>389.4</ele>
        <time>2020-05-04T12:47:54.745Z</time>
      </trkpt>
      <trkpt lat="46.2011" lon="6.14437">
        <ele>389.8</ele>
        <time>2020-05-04T12:47:57.251Z</time>
      </trkpt>
      <trkpt lat="46.20107" lon="6.14446">
        <ele>390.2</ele>
        <time>2020-05-04T12:47:59.597Z</time>
      </trkpt>
      <trkpt lat="46.20104" lon="6.14455">
        <ele>390.8</ele>
        <time>2020-05-04T12:48:02.741Z</time>
      </trkpt>
      <trkpt lat="46.20097" lon="6.14469">
        <ele>391.4</ele>
        <time>2020-05-04T12:48:06.670Z</time>
      </trkpt>
      <trkpt lat="46.20064" lon="6.14537">
        <ele>393</ele>
        <time>2020-05-04T12:48:21.295Z</time>
      </trkpt>
      <trkpt lat="46.20018" lon="6.14633">
        <ele>401.2</ele>
        <time>2020-05-04T12:49:01.975Z</time>
      </trkpt>
      <trkpt lat="46.19986" lon="6.14704">
        <ele>400.2</ele>
        <time>2020-05-04T12:49:10.020Z</time>
      </trkpt>
      <trkpt lat="46.19981" lon="6.14713">
        <ele>400.3</ele>
        <time>2020-05-04T12:49:11.666Z</time>
      </trkpt>
      <trkpt lat="46.19977" lon="6.14719">
        <ele>400.4</ele>
        <time>2020-05-04T12:49:13.035Z</time>
      </trkpt>
      <trkpt lat="46.19971" lon="6.14726">
        <ele>400.2</ele>
        <time>2020-05-04T12:49:13.933Z</time>
      </trkpt>
      <trkpt lat="46.19965" lon="6.1473">
        <ele>399.6</ele>
        <time>2020-05-04T12:49:14.540Z</time>
      </trkpt>
      <trkpt lat="46.19954" lon="6.14735">
        <ele>398.5</ele>
        <time>2020-05-04T12:49:15.610Z</time>
      </trkpt>
      <trkpt lat="46.1994" lon="6.14741">
        <ele>396.8</ele>
        <time>2020-05-04T12:49:16.946Z</time>
      </trkpt>
      <trkpt lat="46.19933" lon="6.14744">
        <ele>395.9</ele>
        <time>2020-05-04T12:49:17.597Z</time>
      </trkpt>
      <trkpt lat="46.19923" lon="6.14752">
        <ele>395.2</ele>
        <time>2020-05-04T12:49:18.654Z</time>
      </trkpt>
      <trkpt lat="46.19892" lon="6.14773">
        <ele>395.1</ele>
        <time>2020-05-04T12:49:24.930Z</time>
      </trkpt>
      <trkpt lat="46.19882" lon="6.14781">
        <ele>395.4</ele>
        <time>2020-05-04T12:49:27.687Z</time>
      </trkpt>
      <trkpt lat="46.19878" lon="6.14784">
        <ele>395.5</ele>
        <time>2020-05-04T12:49:28.903Z</time>
      </trkpt>
      <trkpt lat="46.19873" lon="6.14791">
        <ele>395.7</ele>
        <time>2020-05-04T12:49:30.611Z</time>
      </trkpt>
      <trkpt lat="46.19865" lon="6.14801">
        <ele>396</ele>
        <time>2020-05-04T12:49:33.328Z</time>
      </trkpt>
      <trkpt lat="46.19854" lon="6.14818">
        <ele>396.4</ele>
        <time>2020-05-04T12:49:37.300Z</time>
      </trkpt>
      <trkpt lat="46.19838" lon="6.14844">
        <ele>398.5</ele>
        <time>2020-05-04T12:49:47.984Z</time>
      </trkpt>
      <trkpt lat="46.19813" lon="6.14882">
        <ele>396.8</ele>
        <time>2020-05-04T12:49:51.519Z</time>
      </trkpt>
      <trkpt lat="46.19812" lon="6.14884">
        <ele>396.8</ele>
        <time>2020-05-04T12:49:51.906Z</time>
      </trkpt>
      <trkpt lat="46.19809" lon="6.14886">
        <ele>396.8</ele>
        <time>2020-05-04T12:49:52.488Z</time>
      </trkpt>
      <trkpt lat="46.19806" lon="6.14886">
        <ele>396.7</ele>
        <time>2020-05-04T12:49:52.782Z</time>
      </trkpt>
      <trkpt lat="46.19804" lon="6.14885">
        <ele>396.6</ele>
        <time>2020-05-04T12:49:52.994Z</time>
      </trkpt>
      <trkpt lat="46.19801" lon="6.14884">
        <ele>396.5</ele>
        <time>2020-05-04T12:49:53.375Z</time>
      </trkpt>
      <trkpt lat="46.19798" lon="6.14882">
        <ele>396.5</ele>
        <time>2020-05-04T12:49:53.972Z</time>
      </trkpt>
      <trkpt lat="46.19795" lon="6.14878">
        <ele>396.3</ele>
        <time>2020-05-04T12:49:54.419Z</time>
      </trkpt>
      <trkpt lat="46.19777" lon="6.14854">
        <ele>395.7</ele>
        <time>2020-05-04T12:49:57.461Z</time>
      </trkpt>
      <trkpt lat="46.19768" lon="6.14841">
        <ele>395.2</ele>
        <time>2020-05-04T12:49:58.808Z</time>
      </trkpt>
      <trkpt lat="46.19765" lon="6.14838">
        <ele>395</ele>
        <time>2020-05-04T12:49:59.135Z</time>
      </trkpt>
      <trkpt lat="46.19761" lon="6.14838">
        <ele>394.8</ele>
        <time>2020-05-04T12:49:59.525Z</time>
      </trkpt>
      <trkpt lat="46.19758" lon="6.1484">
        <ele>394.7</ele>
        <time>2020-05-04T12:49:59.911Z</time>
      </trkpt>
      <trkpt lat="46.19753" lon="6.14845">
        <ele>394.8</ele>
        <time>2020-05-04T12:50:01.206Z</time>
      </trkpt>
      <trkpt lat="46.19741" lon="6.14864">
        <ele>395.3</ele>
        <time>2020-05-04T12:50:05.834Z</time>
      </trkpt>
      <trkpt lat="46.19708" lon="6.14912">
        <ele>396.5</ele>
        <time>2020-05-04T12:50:17.478Z</time>
      </trkpt>
      <trkpt lat="46.19666" lon="6.14976">
        <ele>405.7</ele>
        <time>2020-05-04T12:51:02.379Z</time>
      </trkpt>
      <trkpt lat="46.19661" lon="6.14981">
        <ele>405.9</ele>
        <time>2020-05-04T12:51:03.999Z</time>
      </trkpt>
      <trkpt lat="46.19657" lon="6.14985">
        <ele>406</ele>
        <time>2020-05-04T12:51:05.226Z</time>
      </trkpt>
      <trkpt lat="46.19653" lon="6.14988">
        <ele>406.1</ele>
        <time>2020-05-04T12:51:06.305Z</time>
      </trkpt>
      <trkpt lat="46.1963" lon="6.14991">
        <ele>406.9</ele>
        <time>2020-05-04T12:51:12.735Z</time>
      </trkpt>
      <trkpt lat="46.19623" lon="6.14993">
        <ele>407.3</ele>
        <time>2020-05-04T12:51:15.202Z</time>
      </trkpt>
      <trkpt lat="46.1962" lon="6.14996">
        <ele>407.6</ele>
        <time>2020-05-04T12:51:16.793Z</time>
      </trkpt>
      <trkpt lat="46.19619" lon="6.14996">
        <ele>407.6</ele>
        <time>2020-05-04T12:51:16.816Z</time>
      </trkpt>
      <trkpt lat="46.19614" lon="6.15001">
        <ele>408.1</ele>
        <time>2020-05-04T12:51:19.377Z</time>
      </trkpt>
      <trkpt lat="46.1961" lon="6.15006">
        <ele>408.4</ele>
        <time>2020-05-04T12:51:21.370Z</time>
      </trkpt>
      <trkpt lat="46.19598" lon="6.15023">
        <ele>408.3</ele>
        <time>2020-05-04T12:51:24.279Z</time>
      </trkpt>
      <trkpt lat="46.19577" lon="6.15055">
        <ele>406.4</ele>
        <time>2020-05-04T12:51:26.968Z</time>
      </trkpt>
      <trkpt lat="46.19572" lon="6.15062">
        <ele>406.2</ele>
        <time>2020-05-04T12:51:27.859Z</time>
      </trkpt>
      <trkpt lat="46.19565" lon="6.15069">
        <ele>406.1</ele>
        <time>2020-05-04T12:51:28.977Z</time>
      </trkpt>
      <trkpt lat="46.19565" lon="6.15069">
        <ele>406.1</ele>
        <time>2020-05-04T12:51:29.032Z</time>
      </trkpt>
      <trkpt lat="46.19565" lon="6.1507">
        <ele>406.1</ele>
        <time>2020-05-04T12:51:29.118Z</time>
      </trkpt>
      <trkpt lat="46.19555" lon="6.1508">
        <ele>405.9</ele>
        <time>2020-05-04T12:51:30.770Z</time>
      </trkpt>
      <trkpt lat="46.19544" lon="6.15088">
        <ele>406</ele>
        <time>2020-05-04T12:51:33.243Z</time>
      </trkpt>
      <trkpt lat="46.19507" lon="6.1512">
        <ele>405.9</ele>
        <time>2020-05-04T12:51:41.165Z</time>
      </trkpt>
      <trkpt lat="46.19498" lon="6.1513">
        <ele>405.1</ele>
        <time>2020-05-04T12:51:42.235Z</time>
      </trkpt>
      <trkpt lat="46.1949" lon="6.15138">
        <ele>405.2</ele>
        <time>2020-05-04T12:51:44.293Z</time>
      </trkpt>
      <trkpt lat="46.19483" lon="6.15147">
        <ele>405.3</ele>
        <time>2020-05-04T12:51:46.375Z</time>
      </trkpt>
      <trkpt lat="46.19475" lon="6.15157">
        <ele>405.4</ele>
        <time>2020-05-04T12:51:48.433Z</time>
      </trkpt>
      <trkpt lat="46.19468" lon="6.15168">
        <ele>407.4</ele>
        <time>2020-05-04T12:51:55.970Z</time>
      </trkpt>
      <trkpt lat="46.19458" lon="6.15183">
        <ele>407.7</ele>
        <time>2020-05-04T12:51:59.451Z</time>
      </trkpt>
      <trkpt lat="46.19449" lon="6.152">
        <ele>408</ele>
        <time>2020-05-04T12:52:02.915Z</time>
      </trkpt>
      <trkpt lat="46.1944" lon="6.15218">
        <ele>408.2</ele>
        <time>2020-05-04T12:52:06.234Z</time>
      </trkpt>
      <trkpt lat="46.1942" lon="6.15266">
        <ele>409.9</ele>
        <time>2020-05-04T12:52:18.579Z</time>
      </trkpt>
      <trkpt lat="46.19401" lon="6.15312">
        <ele>411.7</ele>
        <time>2020-05-04T12:52:30.863Z</time>
      </trkpt>
      <trkpt lat="46.1939" lon="6.15334">
        <ele>413.3</ele>
        <time>2020-05-04T12:52:38.968Z</time>
      </trkpt>
      <trkpt lat="46.19383" lon="6.15349">
        <ele>413.7</ele>
        <time>2020-05-04T12:52:42.464Z</time>
      </trkpt>
      <trkpt lat="46.19377" lon="6.15358">
        <ele>413.9</ele>
        <time>2020-05-04T12:52:44.465Z</time>
      </trkpt>
      <trkpt lat="46.19373" lon="6.15363">
        <ele>414</ele>
        <time>2020-05-04T12:52:45.765Z</time>
      </trkpt>
      <trkpt lat="46.19368" lon="6.15366">
        <ele>414.1</ele>
        <time>2020-05-04T12:52:47.037Z</time>
      </trkpt>
      <trkpt lat="46.19362" lon="6.15368">
        <ele>414.2</ele>
        <time>2020-05-04T12:52:48.355Z</time>
      </trkpt>
      <trkpt lat="46.19354" lon="6.1537">
        <ele>414.3</ele>
        <time>2020-05-04T12:52:50.170Z</time>
      </trkpt>
      <trkpt lat="46.19346" lon="6.15371">
        <ele>414.4</ele>
        <time>2020-05-04T12:52:51.770Z</time>
      </trkpt>
      <trkpt lat="46.19328" lon="6.1537">
        <ele>415.6</ele>
        <time>2020-05-04T12:52:58.493Z</time>
      </trkpt>
      <trkpt lat="46.19317" lon="6.15369">
        <ele>415.7</ele>
        <time>2020-05-04T12:53:00.938Z</time>
      </trkpt>
      <trkpt lat="46.19308" lon="6.15367">
        <ele>415.8</ele>
        <time>2020-05-04T12:53:02.820Z</time>
      </trkpt>
      <trkpt lat="46.19301" lon="6.15364">
        <ele>415.9</ele>
        <time>2020-05-04T12:53:04.442Z</time>
      </trkpt>
      <trkpt lat="46.19282" lon="6.15357">
        <ele>416.2</ele>
        <time>2020-05-04T12:53:08.769Z</time>
      </trkpt>
      <trkpt lat="46.19264" lon="6.15349">
        <ele>416.5</ele>
        <time>2020-05-04T12:53:12.986Z</time>
      </trkpt>
      <trkpt lat="46.19254" lon="6.15344">
        <ele>416.7</ele>
        <time>2020-05-04T12:53:15.331Z</time>
      </trkpt>
      <trkpt lat="46.19236" lon="6.15336">
        <ele>418</ele>
        <time>2020-05-04T12:53:22.658Z</time>
      </trkpt>
      <trkpt lat="46.19192" lon="6.15317">
        <ele>419</ele>
        <time>2020-05-04T12:53:33.576Z</time>
      </trkpt>
      <trkpt lat="46.19177" lon="6.15312">
        <ele>419.3</ele>
        <time>2020-05-04T12:53:37.137Z</time>
      </trkpt>
      <trkpt lat="46.19161" lon="6.15308">
        <ele>421.7</ele>
        <time>2020-05-04T12:53:49.123Z</time>
      </trkpt>
      <trkpt lat="46.19143" lon="6.15301">
        <ele>422.2</ele>
        <time>2020-05-04T12:53:53.871Z</time>
      </trkpt>
      <trkpt lat="46.19116" lon="6.15289">
        <ele>423</ele>
        <time>2020-05-04T12:54:01.094Z</time>
      </trkpt>
      <trkpt lat="46.19082" lon="6.15274">
        <ele>425.7</ele>
        <time>2020-05-04T12:54:15.401Z</time>
      </trkpt>
      <trkpt lat="46.19032" lon="6.15255">
        <ele>426.6</ele>
        <time>2020-05-04T12:54:27.032Z</time>
      </trkpt>
      <trkpt lat="46.19002" lon="6.15244">
        <ele>424.6</ele>
        <time>2020-05-04T12:54:29.745Z</time>
      </trkpt>
      <trkpt lat="46.18979" lon="6.15237">
        <ele>423.6</ele>
        <time>2020-05-04T12:54:32.182Z</time>
      </trkpt>
      <trkpt lat="46.18942" lon="6.15226">
        <ele>423.2</ele>
        <time>2020-05-04T12:54:37.691Z</time>
      </trkpt>
      <trkpt lat="46.18909" lon="6.15219">
        <ele>423.7</ele>
        <time>2020-05-04T12:54:45.045Z</time>
      </trkpt>
      <trkpt lat="46.18904" lon="6.15218">
        <ele>423.7</ele>
        <time>2020-05-04T12:54:46.020Z</time>
      </trkpt>
      <trkpt lat="46.189" lon="6.1522">
        <ele>423.8</ele>
        <time>2020-05-04T12:54:47.129Z</time>
      </trkpt>
      <trkpt lat="46.18896" lon="6.15223">
        <ele>424</ele>
        <time>2020-05-04T12:54:48.458Z</time>
      </trkpt>
      <trkpt lat="46.18893" lon="6.15228">
        <ele>424.3</ele>
        <time>2020-05-04T12:54:50.203Z</time>
      </trkpt>
      <trkpt lat="46.18882" lon="6.15253">
        <ele>428.7</ele>
        <time>2020-05-04T12:55:05.580Z</time>
      </trkpt>
      <trkpt lat="46.18841" lon="6.15352">
        <ele>429</ele>
        <time>2020-05-04T12:55:21.243Z</time>
      </trkpt>
      <trkpt lat="46.18794" lon="6.15453">
        <ele>428.7</ele>
        <time>2020-05-04T12:55:36.541Z</time>
      </trkpt>
      <trkpt lat="46.18788" lon="6.15468">
        <ele>428.9</ele>
        <time>2020-05-04T12:55:39.268Z</time>
      </trkpt>
      <trkpt lat="46.18787" lon="6.15471">
        <ele>428.9</ele>
        <time>2020-05-04T12:55:39.697Z</time>
      </trkpt>
      <trkpt lat="46.18787" lon="6.15474">
        <ele>428.9</ele>
        <time>2020-05-04T12:55:40.135Z</time>
      </trkpt>
      <trkpt lat="46.18789" lon="6.15477">
        <ele>428.9</ele>
        <time>2020-05-04T12:55:40.591Z</time>
      </trkpt>
      <trkpt lat="46.18792" lon="6.15482">
        <ele>428.8</ele>
        <time>2020-05-04T12:55:41.172Z</time>
      </trkpt>
      <trkpt lat="46.18796" lon="6.15487">
        <ele>428.7</ele>
        <time>2020-05-04T12:55:41.929Z</time>
      </trkpt>
      <trkpt lat="46.18881" lon="6.15574">
        <ele>426.7</ele>
        <time>2020-05-04T12:55:55.591Z</time>
      </trkpt>
      <trkpt lat="46.18932" lon="6.15625">
        <ele>426</ele>
        <time>2020-05-04T12:56:04.716Z</time>
      </trkpt>
      <trkpt lat="46.18934" lon="6.15629">
        <ele>426</ele>
        <time>2020-05-04T12:56:05.347Z</time>
      </trkpt>
      <trkpt lat="46.18935" lon="6.15633">
        <ele>426.1</ele>
        <time>2020-05-04T12:56:06.194Z</time>
      </trkpt>
      <trkpt lat="46.18935" lon="6.15637">
        <ele>426.2</ele>
        <time>2020-05-04T12:56:07.021Z</time>
      </trkpt>
      <trkpt lat="46.18933" lon="6.15642">
        <ele>426.3</ele>
        <time>2020-05-04T12:56:07.893Z</time>
      </trkpt>
      <trkpt lat="46.1893" lon="6.15648">
        <ele>426.6</ele>
        <time>2020-05-04T12:56:09.777Z</time>
      </trkpt>
      <trkpt lat="46.18925" lon="6.15654">
        <ele>426.9</ele>
        <time>2020-05-04T12:56:11.918Z</time>
      </trkpt>
      <trkpt lat="46.18913" lon="6.15666">
        <ele>427.9</ele>
        <time>2020-05-04T12:56:17.384Z</time>
      </trkpt>
      <trkpt lat="46.18827" lon="6.15774">
        <ele>430.1</ele>
        <time>2020-05-04T12:56:43.851Z</time>
      </trkpt>
      <trkpt lat="46.18791" lon="6.15825">
        <ele>430.3</ele>
        <time>2020-05-04T12:56:53.875Z</time>
      </trkpt>
      <trkpt lat="46.18752" lon="6.15879">
        <ele>429.6</ele>
        <time>2020-05-04T12:57:01.589Z</time>
      </trkpt>
      <trkpt lat="46.18735" lon="6.159">
        <ele>427.9</ele>
        <time>2020-05-04T12:57:03.630Z</time>
      </trkpt>
      <trkpt lat="46.18723" lon="6.1591">
        <ele>427.5</ele>
        <time>2020-05-04T12:57:05.314Z</time>
      </trkpt>
      <trkpt lat="46.1871" lon="6.15924">
        <ele>425.6</ele>
        <time>2020-05-04T12:57:06.758Z</time>
      </trkpt>
    </trkseg>
  </trk>
</gpx>